GFSCGP_sfc_temp_141.txt.gz
Temp
52 48 43 45 50 49 49 45 43 46 51 50 48 48 55 55 52 53 53 53 54 56 63 61 61 62 62 63 64 65 64 65 65 64 63 63 63 64 65 66 66 65 64 62
47 44 46 51 49 49 45 42 41 46 47 47 45 46 52 51 53 54 55 54 55 56 58 59 59 60 61 64 63 64 65 65 65 66 66 65 65 65 67 66 66 65 64 63
44 45 50 48 44 44 41 41 41 43 43 44 42 43 47 53 51 53 54 56 56 58 60 61 57 59 60 61 62 63 65 65 66 66 65 62 63 62 63 63 64 65 66 64
46 48 46 43 41 44 37 46 45 43 41 36 42 34 43 49 50 49 54 53 57 58 60 60 57 56 59 61 63 64 64 65 65 67 65 65 65 63 66 65 65 63 64 64
41 41 41 42 43 47 42 46 44 41 38 35 35 34 39 43 44 49 53 55 58 62 63 61 58 58 57 57 59 61 63 63 64 65 66 65 65 66 66 62 62 62 62 63
43 45 47 46 45 49 45 43 41 36 36 30 36 37 35 42 48 52 56 56 60 62 56 55 54 54 55 53 53 55 59 61 62 63 65 64 64 64 61 61 61 61 61 61
38 38 41 45 40 42 43 42 31 29 28 29 33 32 43 47 51 52 56 57 55 54 54 53 52 51 50 51 50 52 56 58 60 61 62 63 63 63 62 62 61 60 61 60
36 33 39 43 42 38 41 41 31 23 23 29 32 32 41 48 51 50 52 52 51 51 52 51 51 50 50 49 50 50 52 55 59 61 62 63 63 62 63 63 61 61 61 62
37 36 40 44 46 50 40 37 43 31 14 23 31 36 43 48 50 46 48 47 50 50 51 50 49 48 48 48 49 49 50 51 53 58 60 60 61 62 61 61 61 61 61 59
42 35 40 43 48 47 45 48 38 33 22 20 29 31 37 44 48 47 49 47 48 49 49 48 47 47 47 48 48 49 49 50 50 51 52 53 54 55 58 59 59 59 59 57
43 39 35 42 41 39 40 39 37 40 34 26 21 33 40 46 45 47 47 47 48 48 48 47 47 47 46 46 47 48 48 49 49 49 49 48 49 49 50 55 57 57 55 55
43 37 30 35 40 43 45 43 46 38 28 29 28 33 45 44 45 44 45 48 46 46 47 47 47 45 44 45 46 47 47 48 48 48 48 49 50 51 49 51 54 53 54 53
43 33 25 31 39 39 40 39 45 37 34 26 27 38 44 41 44 45 46 47 48 46 46 45 43 44 44 45 45 46 46 47 47 47 49 49 50 51 53 52 51 50 49 48
50 35 35 32 35 38 36 40 40 43 30 34 37 42 41 48 48 47 48 48 49 47 47 45 44 43 43 43 44 44 45 46 46 48 50 49 50 50 50 49 48 47 47 46
46 40 33 34 37 40 37 38 40 41 45 37 44 41 45 49 49 47 48 47 48 48 45 44 44 43 42 42 42 43 44 44 46 48 49 49 48 47 46 45 44 44 44 43
41 29 33 28 35 34 31 39 43 44 45 46 46 39 44 54 45 45 47 49 50 49 47 46 44 43 43 43 43 42 42 43 45 47 47 46 45 43 42 41 40 39 38 38
38 31 27 31 33 33 28 37 39 43 46 47 40 47 47 46 47 49 52 51 50 50 48 47 46 47 45 45 44 44 43 42 43 45 43 41 41 39 39 38 38 37 37 37
40 37 29 24 26 23 40 45 46 43 46 48 50 44 45 48 50 50 49 51 49 47 48 48 47 46 46 43 42 42 41 42 41 40 40 39 39 38 37 37 37 36 36 36
41 37 26 24 14 29 39 36 35 36 41 46 46 50 44 43 41 46 48 47 52 53 51 49 47 46 44 43 42 40 39 39 40 39 39 38 38 36 36 35 35 34 34 33
37 40 35 17 27 22 33 43 39 43 34 45 46 46 44 43 42 52 54 50 48 46 45 45 43 42 42 40 38 38 38 38 39 41 40 38 37 36 36 35 34 32 33 32
29 28 31 19 28 26 34 35 44 31 34 45 43 45 44 42 52 47 46 42 42 42 39 38 38 41 40 37 36 37 36 38 40 39 36 35 34 35 36 34 31 31 31 29
31 30 29 27 26 26 35 36 38 44 44 42 41 42 40 39 39 40 39 40 39 37 37 35 36 35 34 35 35 35 35 35 33 33 34 34 33 33 33 33 31 29 28 27
27 34 28 35 34 37 34 39 38 40 42 39 40 40 38 40 38 37 36 35 34 33 34 32 32 33 31 32 31 31 32 31 29 31 30 30 30 31 31 30 28 28 28 28
32 35 31 33 35 36 37 37 38 38 38 38 38 38 38 38 35 34 34 33 32 31 30 28 27 26 25 24 26 28 28 27 28 26 26 26 27 25 26 29 30 29 29 28
34 35 27 27 31 35 35 38 38 36 36 35 34 35 36 35 32 32 32 30 30 29 25 25 25 24 22 22 22 21 24 27 27 26 24 25 26 26 25 26 28 30 27 32
30 31 35 34 37 39 39 37 36 35 34 33 33 31 30 33 32 30 29 28 26 24 22 23 21 21 20 20 19 19 19 24 25 24 24 25 25 24 25 26 24 32 32 34

GFSCGP_sfc_temp_144.txt.gz
Temp
60 54 48 52 56 58 57 50 54 56 60 58 59 60 65 70 66 66 70 71 71 71 76 76 74 74 74 74 74 74 72 73 73 71 69 67 66 70 72 73 74 74 72 66
53 49 57 58 56 51 49 47 51 56 57 56 59 56 63 66 66 68 70 71 72 73 72 73 72 72 71 73 74 74 73 74 73 73 72 71 71 73 73 74 74 74 71 67
51 54 57 53 51 49 46 46 48 53 54 56 54 55 58 63 65 66 67 71 73 72 71 70 69 70 72 72 74 73 74 74 74 72 72 72 72 71 69 70 71 73 74 72
54 57 53 52 50 53 46 54 55 52 51 48 53 49 58 61 62 60 65 67 69 71 67 69 70 70 71 72 74 74 73 73 73 73 73 70 68 67 71 71 71 72 74 73
50 48 49 48 51 55 52 55 54 52 51 48 51 47 56 57 58 61 64 67 70 71 71 72 70 70 73 73 72 73 72 72 72 71 72 71 69 72 73 72 71 72 71 71
49 54 55 55 55 57 53 52 51 50 51 41 51 48 52 58 61 66 70 71 70 72 73 73 71 71 70 69 66 69 70 71 70 70 71 71 70 71 69 69 68 68 69 69
46 48 51 54 49 52 53 51 39 37 39 38 44 43 53 59 63 64 68 71 72 71 71 69 68 67 67 65 64 65 67 68 69 69 71 71 70 70 69 69 68 67 67 67
42 37 47 53 53 48 51 52 42 31 33 42 40 41 52 61 66 68 65 67 66 66 67 66 66 64 64 62 62 62 63 65 68 68 68 70 70 69 70 69 69 68 68 69
43 41 49 50 51 55 49 45 54 38 27 37 47 50 55 58 60 61 62 61 62 66 66 65 62 60 60 59 59 60 61 62 65 66 66 66 67 66 66 68 68 68 68 66
49 38 46 48 53 51 52 55 42 44 31 31 44 43 51 56 60 63 63 63 65 65 67 64 61 60 58 58 57 58 58 58 59 62 63 63 64 64 65 65 64 65 64 63
54 47 40 46 46 47 47 46 48 50 45 37 36 48 60 62 60 62 62 62 60 65 63 63 60 59 58 58 58 59 58 57 56 56 59 57 57 57 58 60 62 62 61 62
52 44 37 43 48 51 55 50 50 42 36 40 37 46 56 59 62 57 60 59 60 59 61 62 59 58 57 58 58 59 58 57 57 57 56 56 56 56 56 58 59 61 60 57
48 39 32 35 45 46 48 49 53 51 43 35 37 48 54 55 55 60 59 61 59 61 59 58 57 57 58 58 58 58 57 58 57 56 55 55 55 56 57 58 60 59 57 56
51 38 37 35 41 44 41 46 49 49 38 40 43 51 54 56 57 60 61 61 62 60 59 59 57 57 58 57 58 58 57 58 56 55 54 54 55 56 57 57 56 54 54 52
51 37 39 42 44 45 41 41 42 42 47 43 49 50 56 61 61 63 63 60 59 59 57 58 58 58 57 56 56 56 57 55 54 53 53 53 54 54 54 52 51 48 47 47
45 35 42 32 40 41 36 44 45 45 48 49 50 50 56 64 64 61 60 59 56 57 58 57 56 56 55 55 56 55 56 55 52 53 52 54 52 49 47 45 43 42 42 42
41 35 34 34 38 38 34 40 46 48 51 51 45 54 56 54 55 60 62 59 59 60 59 58 58 58 58 57 55 55 55 54 49 51 51 50 48 44 42 41 40 39 39 39
38 36 34 30 34 27 42 55 53 50 53 54 55 55 56 59 60 61 64 63 62 57 60 59 59 60 59 56 55 55 53 51 48 46 46 45 44 42 40 39 38 37 37 37
50 41 31 31 32 39 45 45 47 45 47 54 53 55 57 53 54 58 59 63 63 64 64 60 58 57 58 56 54 51 46 47 46 43 44 43 42 39 38 37 37 36 36 36
42 47 37 29 31 28 43 46 47 49 38 56 54 53 53 52 48 57 65 63 62 61 54 53 53 52 52 52 49 45 45 45 45 46 43 42 38 38 37 37 36 36 36 35
34 35 34 32 34 38 43 45 52 36 41 56 53 54 52 48 57 60 56 53 50 49 48 48 49 48 49 45 43 43 45 44 47 44 40 39 38 38 39 38 36 34 34 33
35 33 33 35 32 29 42 43 45 50 51 48 49 49 49 52 51 50 50 48 47 45 44 41 43 41 40 41 40 41 42 43 41 40 39 38 37 37 36 35 34 33 33 33
35 42 36 39 39 43 42 46 47 48 49 47 49 47 47 45 47 49 46 43 41 40 38 36 37 38 35 35 36 36 39 37 36 36 36 35 35 35 34 34 33 32 33 33
38 41 40 39 42 44 45 45 45 47 47 46 47 47 46 45 43 38 38 37 37 34 34 32 34 33 32 31 31 33 34 34 33 34 34 34 34 33 33 34 34 33 33 33
42 40 37 35 37 42 45 45 45 42 40 39 39 40 42 41 37 36 35 34 33 31 30 30 31 30 28 29 29 29 30 32 32 32 31 32 33 33 32 33 34 34 35 37
36 37 40 40 43 45 44 42 41 39 39 39 38 35 33 36 34 33 31 30 29 29 29 29 27 27 26 27 26 25 27 31 32 31 31 33 33 33 33 33 32 33 35 35

GFSCGP_sfc_temp_147.txt.gz
Temp
48 45 42 52 57 62 60 58 56 62 64 60 60 62 67 72 73 70 73 76 77 78 82 81 79 79 77 76 76 77 76 76 76 73 71 70 66 68 71 75 76 76 75 73
46 42 53 57 58 57 59 57 57 62 62 58 60 60 67 69 71 73 74 75 76 77 81 80 78 77 75 76 76 77 77 77 76 75 74 74 71 72 73 74 75 76 75 72
46 54 63 58 56 53 57 54 56 55 58 60 58 55 61 68 70 72 74 76 78 77 76 77 76 74 75 75 75 76 77 78 77 76 75 74 73 71 72 71 73 74 75 74
52 63 58 56 54 56 50 58 58 54 52 49 59 49 63 68 67 67 70 71 74 76 74 75 75 74 75 74 76 76 77 78 77 77 74 72 69 68 71 72 72 73 74 74
52 56 53 51 54 58 55 59 55 54 51 51 54 48 59 68 63 67 70 70 73 75 74 72 73 74 77 75 75 77 78 77 76 75 75 73 72 72 73 72 72 72 73 74
54 61 57 57 60 59 60 56 55 54 53 42 52 52 53 60 65 69 73 75 73 76 77 77 78 76 75 75 74 75 76 76 74 75 75 73 72 72 71 71 70 70 71 71
49 51 57 59 54 58 57 51 40 36 38 39 52 49 55 64 70 70 71 75 77 77 77 78 77 71 73 71 69 71 73 73 75 73 73 73 73 73 71 71 71 69 68 68
41 37 49 56 55 51 51 52 43 32 36 43 45 42 54 66 70 72 73 73 72 72 74 74 76 74 72 69 68 67 68 70 73 73 72 73 73 72 72 72 71 69 68 68
43 44 54 55 57 56 49 46 58 43 32 38 48 53 60 63 64 66 66 67 67 69 72 71 72 70 69 68 67 67 67 66 69 71 70 70 71 70 70 70 71 69 69 67
53 40 49 51 55 57 54 58 43 46 32 32 48 48 51 57 61 66 68 67 70 72 71 72 70 67 66 66 65 64 65 64 66 68 69 68 69 69 68 68 66 67 67 66
57 48 41 46 46 47 47 48 51 52 48 38 38 48 64 64 65 66 67 66 68 67 69 71 69 67 64 63 63 62 62 63 63 64 66 65 65 65 65 64 64 63 63 65
58 49 36 41 52 52 54 51 51 42 38 43 38 46 61 64 67 63 64 65 65 64 67 68 66 64 62 62 63 62 62 62 62 62 63 62 62 60 59 59 61 61 62 62
52 42 33 36 47 49 48 52 54 53 44 37 38 49 57 61 61 62 62 66 64 65 64 64 64 62 62 63 62 63 62 61 61 61 60 60 60 59 59 59 60 60 59 58
52 41 38 35 41 48 42 49 52 51 40 42 44 53 59 60 60 63 64 66 67 64 63 63 62 62 63 63 63 63 62 63 60 60 59 59 59 59 60 60 59 60 57 57
51 34 41 48 47 48 44 44 47 46 49 43 48 50 58 64 63 66 68 65 64 63 62 63 62 62 62 61 61 62 62 61 60 59 58 58 58 58 59 57 57 54 53 52
49 35 40 33 43 44 38 46 47 48 50 51 52 52 65 65 68 68 65 63 61 63 64 63 61 61 60 61 61 60 60 59 58 57 56 57 55 54 52 51 48 45 44 44
44 37 36 33 40 38 33 42 47 49 53 53 46 55 61 61 60 62 64 64 62 62 64 63 62 61 60 60 60 59 59 59 55 55 54 53 52 46 45 44 43 42 41 41
40 38 37 33 34 25 42 56 55 51 53 56 56 58 59 61 64 64 65 64 65 61 62 65 65 65 63 60 59 60 58 56 51 49 47 46 46 44 42 41 40 38 38 37
49 40 32 31 31 38 45 48 50 48 48 57 56 58 59 60 56 59 63 64 64 65 65 63 64 63 64 59 58 56 50 48 46 45 44 44 44 40 38 37 37 35 36 35
47 48 38 32 31 28 43 52 54 55 39 56 58 57 58 57 49 57 65 64 63 64 60 56 58 58 57 57 53 47 46 45 46 46 43 43 38 38 38 37 36 34 34 35
34 35 34 35 34 37 46 49 55 36 40 54 55 58 57 52 58 61 57 56 49 47 48 50 51 52 52 45 44 44 45 45 46 45 41 38 38 38 39 37 34 35 34 34
36 34 34 35 33 30 47 49 46 52 55 51 48 52 53 57 57 53 53 50 48 47 45 42 42 41 40 40 40 41 42 42 42 39 38 37 37 36 36 35 34 34 34 34
37 44 38 40 41 44 49 49 52 51 52 49 52 50 53 50 49 50 49 47 43 41 38 37 38 38 37 36 36 36 39 38 35 36 35 35 35 34 35 35 34 34 34 34
44 50 42 41 48 47 49 48 47 50 50 49 49 49 48 47 45 38 38 37 37 35 34 34 35 34 32 32 32 32 33 33 33 34 34 34 34 34 34 34 34 34 34 33
45 45 38 38 40 44 46 50 52 44 43 42 40 41 43 41 37 37 35 34 34 33 32 32 31 30 29 30 29 28 30 32 33 33 32 33 33 33 33 32 34 34 34 36
38 40 42 41 43 49 47 50 46 42 41 42 39 36 36 39 36 35 32 31 31 29 29 29 27 27 27 27 25 25 27 31 32 31 31 32 31 31 31 31 30 34 35 36

GFSCGP_sfc_temp_150.txt.gz
Temp
47 42 40 47 52 56 54 52 51 56 61 55 53 56 60 64 61 61 62 63 65 67 70 71 71 70 71 71 71 71 69 69 68 67 66 64 63 66 63 64 67 67 67 65
42 39 48 54 55 55 54 50 52 57 58 52 52 54 60 61 63 64 64 64 65 67 69 71 71 69 70 71 70 70 70 70 70 69 68 67 65 67 65 66 67 67 69 67
37 44 51 50 52 50 51 52 52 51 53 52 49 48 52 59 62 64 66 67 69 68 66 68 69 70 70 69 69 69 72 72 71 70 68 65 64 62 64 64 66 67 67 66
41 49 46 45 45 52 47 57 54 52 47 40 50 38 51 56 59 61 64 65 68 68 68 68 68 68 69 69 70 70 71 71 71 71 68 66 65 63 64 65 66 65 67 66
39 44 44 43 47 54 51 56 52 49 44 41 43 37 46 57 54 58 61 63 66 69 67 66 65 68 70 70 69 70 70 70 69 70 70 67 65 66 64 63 64 64 65 65
47 50 50 51 55 55 56 51 49 46 46 35 42 43 42 50 56 58 61 62 65 65 65 65 64 65 67 66 67 68 68 70 69 69 69 68 66 64 64 63 63 64 64 65
43 45 52 56 50 53 52 46 30 30 32 30 44 41 47 55 60 60 61 62 59 64 65 64 62 61 61 61 64 65 66 68 69 68 69 69 67 67 65 64 65 64 64 64
35 34 48 53 52 47 49 48 34 26 27 31 36 33 44 58 63 62 62 59 59 55 61 62 63 61 60 60 59 60 61 65 66 67 67 68 68 68 68 66 65 65 64 65
38 40 53 53 55 54 46 42 49 35 24 27 36 43 52 57 56 56 55 56 56 58 59 60 60 59 59 57 57 57 57 58 61 64 66 66 67 66 66 64 64 64 64 62
48 37 48 49 53 53 50 54 42 38 23 23 34 35 42 49 52 56 56 56 57 58 59 59 59 57 57 55 56 56 56 56 56 58 60 62 63 62 63 62 61 62 61 61
52 44 37 45 43 45 43 44 45 45 39 29 27 36 50 53 55 55 56 55 53 55 57 58 57 55 54 54 53 53 53 53 54 55 56 57 58 59 60 60 60 63 62 62
51 42 34 40 47 50 52 48 49 39 34 36 33 36 52 52 55 56 55 56 53 52 56 56 54 53 52 52 52 52 52 52 53 54 55 56 56 56 56 57 59 62 63 60
49 37 28 33 42 45 45 48 52 48 41 32 29 37 52 53 53 53 51 53 56 52 51 54 53 51 51 51 52 52 52 52 53 53 54 54 54 54 55 56 58 59 59 58
52 39 34 29 35 43 38 45 47 48 33 33 41 42 48 50 52 53 52 54 56 55 55 53 51 51 51 52 52 52 52 52 52 52 51 51 52 52 52 53 55 58 57 55
47 34 37 40 42 45 42 43 46 44 47 39 45 45 50 52 54 55 56 55 55 55 54 53 52 51 51 51 51 52 52 52 52 51 50 50 51 51 51 50 50 50 52 51
45 32 37 31 40 40 36 44 46 47 48 48 49 44 56 59 53 52 56 56 55 56 55 54 54 53 53 52 51 52 52 51 51 50 50 50 49 49 48 47 46 46 45 46
40 35 34 30 35 35 30 40 44 47 50 50 43 51 54 53 54 54 56 57 56 55 57 56 55 54 52 51 52 50 51 50 49 48 48 47 47 45 46 43 42 41 41 41
40 36 35 29 32 24 37 50 51 48 50 53 54 51 53 55 55 55 56 57 56 55 56 56 56 55 53 51 50 50 49 49 47 45 44 43 42 42 41 40 40 39 39 38
48 39 31 28 29 31 38 41 45 43 43 52 52 55 53 51 46 50 55 56 58 57 56 54 53 54 53 51 49 48 45 44 43 42 41 41 43 40 37 37 36 34 35 34
40 43 34 31 27 25 38 45 49 47 37 52 53 52 52 51 46 52 56 56 51 49 47 48 49 50 50 48 47 44 41 40 40 39 38 38 38 38 38 37 36 34 34 34
31 32 30 30 29 32 41 44 51 33 38 51 55 54 53 48 56 52 51 46 43 42 41 42 41 41 37 36 39 40 39 39 39 40 37 35 36 36 37 36 34 34 34 34
31 30 29 31 26 24 43 46 43 46 44 47 45 49 48 50 47 47 45 41 40 37 36 35 35 33 32 32 34 35 36 35 37 36 35 34 35 35 35 35 34 34 34 33
31 39 33 37 37 39 39 43 43 47 47 43 46 43 46 46 43 43 40 37 34 33 32 32 33 31 30 30 30 30 30 31 31 33 34 34 34 34 34 34 34 33 33 34
38 44 34 35 39 40 44 41 43 44 44 43 43 43 41 41 40 34 33 32 30 30 29 30 29 27 26 26 28 27 28 28 33 34 34 33 33 33 33 33 34 34 34 33
37 41 32 33 34 37 39 42 44 39 39 38 35 37 38 36 33 32 30 29 29 28 27 28 27 25 24 23 23 23 26 31 32 32 31 32 32 33 32 32 33 33 33 35
28 27 36 36 30 37 36 35 37 37 37 35 34 32 33 33 31 30 28 28 26 25 24 24 22 22 20 19 19 19 22 27 32 30 30 30 30 30 30 31 30 35 35 37